timestamp,surface_pressure_avg,surface_temp_avg,battery_voltage,lat,long
2020-10-19 00:09:01+00:00,340.3113,13.38,12.81,47.84626,-54.09684
2020-10-19 00:19:01+00:00,344.3546,13.38,12.81,47.84626,-54.09684
2020-10-19 00:29:01+00:00,349.0213,13.37,12.81,47.84626,-54.09684
2020-10-19 00:39:01+00:00,351.4396,13.37,12.81,47.84626,-54.09684
2020-10-19 00:49:01+00:00,353.3647,13.34,12.81,47.84626,-54.09684
2020-10-19 00:59:01+00:00,352.6812,13.32,12.81,47.84626,-54.09684
2020-10-19 01:09:01+00:00,353.8345,13.3,12.81,47.84626,-54.09684
2020-10-19 01:19:01+00:00,355.1546,13.3,12.73,47.84626,-54.09684
2020-10-19 01:29:01+00:00,353.8162,13.3,12.73,47.84626,-54.09684
2020-10-19 01:39:01+00:00,349.7447,13.3,12.73,47.84626,-54.09684
2020-10-19 01:49:01+00:00,346.5263,13.3,12.73,47.84626,-54.09684
2020-10-19 01:59:01+00:00,344.3297,13.29,12.73,47.84626,-54.09684
2020-10-19 02:09:01+00:00,340.1764,13.3,12.73,47.84626,-54.09684
2020-10-19 02:19:01+00:00,334.6646,13.3,12.73,47.84626,-54.09684
2020-10-19 02:29:01+00:00,330.733,13.3,12.73,47.84626,-54.09684
2020-10-19 02:39:01+00:00,328.5295,13.3,12.73,47.84626,-54.09684
2020-10-19 02:49:01+00:00,321.423,13.29,12.73,47.84626,-54.09684
2020-10-19 02:59:01+00:00,312.9879,13.3,12.73,47.84626,-54.09684
2020-10-19 03:09:01+00:00,309.0447,13.3,12.73,47.84626,-54.09684
2020-10-19 03:19:01+00:00,303.9014,13.3,12.73,47.84626,-54.09684
2020-10-19 03:29:01+00:00,290.7947,13.3,12.73,47.84626,-54.09684
2020-10-19 03:39:01+00:00,281.1931,13.33,12.73,47.84626,-54.09684
2020-10-19 03:49:01+00:00,274.9764,13.34,12.73,47.84626,-54.09684
2020-10-19 03:59:01+00:00,264.8347,13.37,12.73,47.84626,-54.09684
2020-10-19 04:09:01+00:00,251.1564,13.4,12.73,47.84626,-54.09684
2020-10-19 04:19:01+00:00,241.1214,13.4,12.73,47.84626,-54.09684
2020-10-19 04:29:01+00:00,231.3965,13.43,12.73,47.84626,-54.09684
2020-10-19 04:39:01+00:00,218.8898,13.49,12.73,47.84626,-54.09684
2020-10-19 04:49:01+00:00,207.4581,13.5,12.73,47.84626,-54.09684
2020-10-19 04:59:01+00:00,199.3831,13.5,12.73,47.84626,-54.09684
2020-10-19 05:09:01+00:00,189.0031,13.5,12.73,47.84626,-54.09684
2020-10-19 05:19:01+00:00,178.9931,13.5,12.65,47.84626,-54.09684
2020-10-19 05:29:01+00:00,174.5498,13.48,12.65,47.84626,-54.09684
2020-10-19 05:39:01+00:00,168.4748,13.48,12.65,47.84626,-54.09684
2020-10-19 05:49:01+00:00,158.0298,13.49,12.65,47.84626,-54.09684
2020-10-19 05:59:01+00:00,151.3432,13.5,12.65,47.84626,-54.09684
2020-10-19 06:09:01+00:00,150.6982,13.5,12.65,47.84626,-54.09684
2020-10-19 06:19:01+00:00,147.4865,13.5,12.65,47.84626,-54.09684
2020-10-19 06:29:01+00:00,141.7949,13.49,12.65,47.84626,-54.09684
2020-10-19 06:39:01+00:00,141.5532,13.45,12.65,47.84626,-54.09684
2020-10-19 06:49:01+00:00,144.6748,13.4,12.65,47.84626,-54.09684
2020-10-19 06:59:01+00:00,145.7831,13.4,12.65,47.84626,-54.09684
2020-10-19 07:09:01+00:00,147.9815,13.4,12.65,47.84626,-54.09684
2020-10-19 07:19:01+00:00,152.0215,13.4,12.65,47.84626,-54.09684
2020-10-19 07:29:01+00:00,155.8948,13.4,12.65,47.84626,-54.09684
2020-10-19 07:39:01+00:00,160.0548,13.4,12.65,47.84626,-54.09684
2020-10-19 07:49:01+00:00,165.8065,13.4,12.65,47.84626,-54.09684
2020-10-19 07:59:01+00:00,172.7198,13.39,12.65,47.84626,-54.09684
2020-10-19 08:09:01+00:00,178.1881,13.38,12.65,47.84626,-54.09684
2020-10-19 08:19:01+00:00,183.9715,13.36,12.65,47.84626,-54.09684
2020-10-19 08:29:01+00:00,190.3631,13.33,12.65,47.84626,-54.09684
2020-10-19 08:39:01+00:00,195.3281,13.3,12.65,47.84626,-54.09684
2020-10-19 08:49:01+00:00,201.1364,13.31,12.65,47.84626,-54.09684
2020-10-19 08:59:01+00:00,207.1648,13.35,12.65,47.84626,-54.09684
2020-10-19 09:09:01+00:00,210.8014,13.38,12.65,47.84626,-54.09684
2020-10-19 09:19:01+00:00,214.4131,13.38,12.65,47.84626,-54.09684
2020-10-19 09:29:01+00:00,219.3014,13.36,12.65,47.84626,-54.09684
2020-10-19 09:39:01+00:00,223.4381,13.35,12.65,47.84626,-54.09684
2020-10-19 09:49:01+00:00,228.2648,13.34,12.65,47.84626,-54.09684
2020-10-19 09:59:01+00:00,235.1147,13.3,12.65,47.84626,-54.09684
2020-10-19 10:09:01+00:00,240.0847,13.3,12.65,47.84626,-54.09684
2020-10-19 10:19:01+00:00,245.9197,13.3,12.65,47.84626,-54.09684
2020-10-19 10:29:01+00:00,254.0397,13.3,12.65,47.84626,-54.09684
2020-10-19 10:39:01+00:00,261.4447,13.3,12.65,47.84626,-54.09684
2020-10-19 10:49:01+00:00,268.8614,13.2,12.65,47.84626,-54.09684
2020-10-19 10:59:01+00:00,280.6481,13.2,12.65,47.84626,-54.09684
2020-10-19 11:09:01+00:00,292.3464,13.2,12.65,47.84626,-54.09684
2020-10-19 11:19:01+00:00,302.0363,13.2,12.65,47.84626,-54.09684
2020-10-19 11:29:01+00:00,313.4647,13.2,12.65,47.84626,-54.09684
2020-10-19 11:39:01+00:00,328.3763,13.2,12.65,47.84626,-54.09684
2020-10-19 11:49:01+00:00,339.5779,13.2,12.65,47.84626,-54.09684
2020-10-19 11:59:01+00:00,348.9763,13.2,12.65,47.84626,-54.09684
2020-10-19 12:09:01+00:00,357.0545,13.2,12.65,47.84626,-54.09684
2020-10-19 12:19:01+00:00,361.8679,13.2,12.73,47.84626,-54.09684
2020-10-19 12:29:01+00:00,366.1146,13.2,12.73,47.84626,-54.09684
2020-10-19 12:39:01+00:00,371.7979,13.2,12.73,47.84626,-54.09684
2020-10-19 12:49:01+00:00,376.0429,13.2,12.73,47.84626,-54.09684
2020-10-19 12:59:01+00:00,378.1728,13.2,12.73,47.84626,-54.09684
2020-10-19 13:09:01+00:00,379.3081,13.2,12.73,47.84626,-54.09684
2020-10-19 13:19:01+00:00,381.6428,13.2,12.81,47.84626,-54.09684
2020-10-19 13:29:01+00:00,382.4128,13.19,12.81,47.84626,-54.09684
2020-10-19 13:39:01+00:00,379.4713,13.2,12.81,47.84626,-54.09684
2020-10-19 13:49:01+00:00,378.6213,13.2,12.81,47.84626,-54.09684
2020-10-19 13:59:01+00:00,377.9595,13.2,12.81,47.84626,-54.09684
2020-10-19 14:09:01+00:00,373.9179,13.2,12.81,47.84626,-54.09684
2020-10-19 14:19:01+00:00,369.8712,13.17,13.05,47.84626,-54.09684
2020-10-19 14:29:01+00:00,366.9429,13.1,13.05,47.84626,-54.09684
2020-10-19 14:39:01+00:00,363.9846,13.1,13.05,47.84626,-54.09684
2020-10-19 14:49:01+00:00,358.4846,13.1,13.05,47.84626,-54.09684
2020-10-19 14:59:01+00:00,352.583,13.1,13.05,47.84626,-54.09684
2020-10-19 15:09:01+00:00,349.6196,13.1,13.05,47.84626,-54.09684
2020-10-19 15:19:01+00:00,343.86800000000005,13.1,13.44,47.84626,-54.09684
2020-10-19 15:29:01+00:00,335.2596,13.1,13.44,47.84626,-54.09684
2020-10-19 15:39:01+00:00,325.9913,13.13,13.44,47.84626,-54.09684
2020-10-19 15:49:01+00:00,316.793,13.14,13.44,47.84626,-54.09684
2020-10-19 15:59:01+00:00,303.0831,13.16,13.44,47.84626,-54.09684
2020-10-19 16:09:01+00:00,291.6547,13.16,13.44,47.84626,-54.09684
2020-10-19 16:19:01+00:00,281.5897,13.19,14.08,47.84626,-54.09684
2020-10-19 16:29:01+00:00,268.9915,13.2,14.08,47.84626,-54.09684
2020-10-19 16:39:01+00:00,257.3414,13.2,14.08,47.84626,-54.09684
2020-10-19 16:49:01+00:00,249.2981,13.24,14.08,47.84626,-54.09684
2020-10-19 16:59:01+00:00,239.0947,13.3,14.08,47.84626,-54.09684
2020-10-19 17:09:01+00:00,224.3631,13.3,14.08,47.84626,-54.09684
2020-10-19 17:19:01+00:00,213.2264,13.3,13.84,47.84626,-54.09684
2020-10-19 17:29:01+00:00,205.9831,13.3,13.84,47.84626,-54.09684
2020-10-19 17:39:01+00:00,195.9264,13.3,13.84,47.84626,-54.09684
2020-10-19 17:49:01+00:00,185.5248,13.3,13.84,47.84626,-54.09684
2020-10-19 17:59:01+00:00,178.9632,13.3,13.84,47.84626,-54.09684
2020-10-19 18:09:01+00:00,172.7032,13.3,13.84,47.84626,-54.09684
2020-10-19 18:19:01+00:00,164.2365,13.3,13.84,47.84626,-54.09684
2020-10-19 18:29:01+00:00,158.8598,13.3,13.84,47.84626,-54.09684
2020-10-19 18:39:01+00:00,156.2682,13.3,13.84,47.84626,-54.09684
2020-10-19 18:49:01+00:00,149.9532,13.31,13.84,47.84626,-54.09684
2020-10-19 18:59:01+00:00,145.7049,13.36,13.84,47.84626,-54.09684
2020-10-19 19:09:01+00:00,149.9265,13.34,13.84,47.84626,-54.09684
2020-10-19 19:19:01+00:00,152.5948,13.32,13.84,47.84626,-54.09684
2020-10-19 19:29:01+00:00,149.5999,13.34,13.84,47.84626,-54.09684
2020-10-19 19:39:01+00:00,150.8132,13.37,13.84,47.84626,-54.09684
2020-10-19 19:49:01+00:00,154.4031,13.37,13.84,47.84626,-54.09684
2020-10-19 19:59:01+00:00,154.2848,13.37,13.84,47.84626,-54.09684
2020-10-19 20:09:01+00:00,156.7415,13.37,13.84,47.84626,-54.09684
2020-10-19 20:19:01+00:00,164.5331,13.32,13.44,47.84626,-54.09684
2020-10-19 20:29:01+00:00,168.0182,13.3,13.44,47.84626,-54.09684
2020-10-19 20:39:01+00:00,169.1365,13.3,13.44,47.84626,-54.09684
2020-10-19 20:49:01+00:00,176.6115,13.3,13.44,47.84626,-54.09684
2020-10-19 20:59:01+00:00,182.6815,13.3,13.44,47.84626,-54.09684
2020-10-19 21:09:01+00:00,184.1365,13.3,13.44,47.84626,-54.09684
2020-10-19 21:19:01+00:00,186.1515,13.3,13.05,47.84626,-54.09684
2020-10-19 21:29:01+00:00,190.1348,13.3,13.05,47.84626,-54.09684
2020-10-19 21:39:01+00:00,194.7231,13.3,13.05,47.84626,-54.09684
2020-10-19 21:49:01+00:00,197.9548,13.3,13.05,47.84626,-54.09684
2020-10-19 21:59:01+00:00,204.2581,13.3,13.05,47.84626,-54.09684
2020-10-19 22:09:01+00:00,208.2947,13.3,13.05,47.84626,-54.09684
2020-10-19 22:19:01+00:00,208.8265,13.3,12.81,47.84626,-54.09684
2020-10-19 22:29:01+00:00,210.6248,13.3,12.81,47.84626,-54.09684
2020-10-19 22:39:01+00:00,217.6248,13.3,12.81,47.84626,-54.09684
2020-10-19 22:49:01+00:00,226.0097,13.3,12.81,47.84626,-54.09684
2020-10-19 22:59:01+00:00,232.7947,13.3,12.81,47.84626,-54.09684
2020-10-19 23:09:01+00:00,237.1531,13.3,12.81,47.84626,-54.09684
2020-10-19 23:19:01+00:00,245.703,13.3,12.81,47.84626,-54.09684
2020-10-19 23:29:01+00:00,257.243,13.32,12.81,47.84626,-54.09684
2020-10-19 23:39:01+00:00,265.6998,13.35,12.81,47.84626,-54.09684
2020-10-19 23:49:01+00:00,271.5764,13.36,12.81,47.84626,-54.09684
2020-10-19 23:59:01+00:00,282.6797,13.36,12.81,47.84626,-54.09684
